{"data":{"norad_id":63973,"epoch":"2026-09-19T02:27:39.776544Z","epoch_age_seconds":264469,"freshness":"STALE","line1":"1 63973U 25099X   26262.10254371  .00011353  00000+0  42135-3 0  9994","line2":"2 63973  43.0013 160.6863 0001268 263.8638  96.2069 15.27588276 76954","mean_motion":15.27588276,"eccentricity":0.0001268,"inclination_deg":43.0013,"raan_deg":160.6863,"arg_perigee_deg":263.8638,"mean_anomaly_deg":96.2069,"bstar":0.00042135,"rev_number":7695,"period_min":94.266238005613,"perigee_km":482.15431957554,"apogee_km":483.89431008498,"semimajor_km":6861.1613148303,"source":"CELESTRAK","updated_at":"2026-09-21T09:00:35.178137Z"}}